{"data":{"norad_id":64106,"epoch":"2026-05-24T22:57:58.750272Z","epoch_age_seconds":85615,"freshness":"FRESH","line1":"1 64106U 25110L   26144.95692998  .00029825  00000+0  89052-3 0  9992","line2":"2 64106  53.1610  32.2044 0000988  88.6749 271.4367 15.34393209 57569","mean_motion":15.34393209,"eccentricity":9.88e-5,"inclination_deg":53.161,"raan_deg":32.2044,"arg_perigee_deg":88.6749,"mean_anomaly_deg":271.4367,"bstar":0.00089052,"rev_number":5756,"period_min":93.848173437791,"perigee_km":462.04754755474,"apogee_km":463.39930157463,"semimajor_km":6840.8604245647,"source":"CELESTRAK","updated_at":"2026-05-25T13:38:20.265881Z"}}